Regional Weather Roundup
Issued by NWS

Home | Current Version | Previous Version | Graphics & Text | Print | Product List | Glossary On
Versions: 1 2 3 4 5 6 7 8 9 10 11 12 13 14 15 16 17 18 19 20 21 22 23 24 25 26 27
000
ASUS45 KCYS 200510
RWRWY

WYOMING REGIONAL WEATHER ROUNDUP
NATIONAL WEATHER SERVICE CHEYENNE WY
1100 PM MDT THU APR 19 2018

NOTE:  "FAIR" INDICATES FEW OR NO CLOUDS BELOW 12,000 FEET
WITH NO SIGNIFICANT WEATHER AND/OR OBSTRUCTIONS TO VISIBILITY.

WYZ001-200600-
YELLOWSTONE NATIONAL PARK

CITY           SKY/WX    TMP DP  RH WIND       PRES   REMARKS
LK YELLOWSTONE   N/A     30  22  72 NW3       30.07S
W YELLOWSTONE  NOT AVBL

$$
WYZ002>013-054>058-071-098>099-200600-
NORTHERN WYOMING

CITY           SKY/WX    TMP DP  RH WIND       PRES   REMARKS
JACKSON        FAIR      40  22  48 N17       29.95R WCI  31
CODY           FAIR      46  23  40 W5        30.03R
GREYBULL       FAIR      49  33  54 W9        29.95S
WORLAND        FAIR      43  34  70 CALM      29.97R
SHERIDAN       FAIR      48  32  53 CALM      30.01F
BUFFALO        FAIR      45  29  53 S5        30.06S
GILLETTE       FAIR      49  30  48 SE22G31   30.05F
HULETT         FAIR      43  32  65 E8        30.12S
NEWCASTLE      FAIR      46  25  42 SE22G33   30.11R

$$
WYZ014>020-022>026-101>103-200600-
CENTRAL WYOMING

CITY           SKY/WX    TMP DP  RH WIND       PRES   REMARKS
BIG PINEY      MOCLDY    51  10  19 S17       29.92R
PINEDALE       MOCLDY    45  19  36 NE15G22   29.94R
DUBOIS         FAIR      37  18  44 SE8       30.00R WCI  31
LANDER         FAIR      46  25  43 W8        29.96S
RIVERTON       FAIR      42  24  49 N10       29.96R
CASPER         FAIR      48  25  40 E20       29.94S
DOUGLAS        FAIR      46  28  49 SE20      30.01F

$$
WYZ021-027>030-104>119-200600-
SOUTHERN WYOMING

CITY           SKY/WX    TMP DP  RH WIND       PRES   REMARKS
EVANSTON       MOCLDY    44  21  40 E5        29.86R
KEMMERER       FAIR      46  16  29 E8        29.92R
FORT BRIDGER   MOCLDY    48  24  39 SE15      29.91R
ROCK SPRINGS   CLOUDY    45  20  36 E13G26    29.89F
DIXON          CLOUDY    53  26  35 SW8       29.90S
RAWLINS        MOCLDY    47  19  33 NE13      29.91R
SARATOGA       CLOUDY    52  14  22 SE17      29.92R
LARAMIE        FAIR      42  20  41 SE37G46   29.95F
CHEYENNE       FAIR      42  24  49 SE18G32   30.04R
TORRINGTON     FAIR      45  28  51 SE23G35   30.04S
PINE BLUFFS    FAIR      43  25  49 SE29G41   30.04F

$$




USA.gov is the U.S. government's official web portal to all federal, state and local government web resources and services.